Regional Weather Roundup
Issued by NWS

Home | Current Version | Previous Version | Text Only | Print | Product List | Glossary Off
Versions: 1 2 3 4 5 6 7 8 9 10 11 12 13 14 15 16 17 18 19 20 21 22 23 24 25 26 27 28 29 30 31 32 33 34 35 36 37 38 39 40 41 42 43 44 45 46 47 48 49 50

833
ASUS43 KIND 191800
RWRIN

WEATHER ROUNDUP FOR INDIANA
NATIONAL WEATHER SERVICE INDIANAPOLIS IN
200 PM EDT TUE SEP 19 2017

NOTE: "FAIR" INDICATES FEW OR NO CLOUDS BELOW 12,000 FEET WITH NO
SIGNIFICANT WEATHER AND/OR OBSTRUCTIONS TO VISIBILITY.

* - STATION DOES NOT REPORT WEATHER SUCH AS PRECIPITATION OR FOG.

+ - STATION NOT QUALITY CONTROLLED BY THE NATIONAL WEATHER SERVICE.
    USE DATA WITH CAUTION...ESPECIALLY DEWPOINT AND RELATIVE
    HUMIDITY OBSERVATIONS.

INZ001>003-010>013-019-020-191900-
NORTHWEST INDIANA

CITY           SKY/WX    TMP DP  RH WIND       PRES   REMARKS
GARY /AIRPORT/ MOSUNNY   77  64  65 NE7       29.96S
MICHIGAN CITY+ CLOUDY    70  68  94 NE6       29.96F
MONTICELLO +   CLOUDY    70  67  90 W6        29.95F
6HR MIN TEMP:  65; 6HR MAX TEMP:  70;

RENSSELAER +   CLOUDY    73  63  68 NW6       29.96S

$$

LMZ046-743>745-191900-
SOUTHERN LAKE MICHIGAN

STATION/POSITION TIME  TEMP    WIND        PRES    WAVE
                       AIR SEA DIR/SP/G            HT
                 (UTC) (F)     (DEG/KT/KT) (MB)    (FT)
BURNS HARBOR     1740   69      30/  8/  9 1014.9F
MICHIGAN CITY    1730   68      10/ 11/ 12   N/A
5NW MICH CITY    1750   68 69   30/ 12/ 14   N/A     1

$$

INZ004-005-014>016-021>024-191900-
NORTH CENTRAL INDIANA

CITY           SKY/WX    TMP DP  RH WIND       PRES   REMARKS
ELKHART        CLOUDY    72  64  78 NE6       29.96F
GOSHEN         CLOUDY    72  66  81 N5        29.95F
6HR MIN TEMP:  66; 6HR MAX TEMP:  72; 6HR PCP:  0.05;

SOUTH BEND     CLOUDY    69  67  93 NE7       29.96F
6HR MIN TEMP:  65; 6HR MAX TEMP:  69; 6HR PCP:  0.20;


$$

INZ006>009-017-018-025>027-191900-
NORTHEAST INDIANA

CITY           SKY/WX    TMP DP  RH WIND       PRES   REMARKS
FORT WAYNE     LGT RAIN  74  67  78 S9        29.95F
6HR MIN TEMP:  67; 6HR MAX TEMP:  76; 6HR PCP:  0.02;

KENDALLVILLE + RAIN      68  67  99 SE6       29.97F

$$

INZ028-029-035-036-043>045-051>053-191900-
WEST CENTRAL INDIANA

CITY           SKY/WX    TMP DP  RH WIND       PRES   REMARKS
LAFAYETTE      PTSUNNY   75  68  78 NW7       29.95F
6HR MIN TEMP:  65; 6HR MAX TEMP:  76;

TERRE HAUTE    MOSUNNY   78  67  68 SW7       29.95F
6HR MIN TEMP:  68; 6HR MAX TEMP:  78;


$$

INZ030>032-037>040-046>048-054>057-064-065-191900-
CENTRAL INDIANA

CITY           SKY/WX    TMP DP  RH WIND       PRES   REMARKS
ANDERSON       CLOUDY    72  66  83 S8        29.99S
COLUMBUS       CLOUDY    75  66  73 SW6       29.97F
FRANKFORT +    CLOUDY    76  69  77 W6        29.97F
6HR MIN TEMP:  70; 6HR MAX TEMP:  78;

INDIANAPOLIS   PTSUNNY   77  68  73 W6        29.96F
6HR MIN TEMP:  68; 6HR MAX TEMP:  77; 6HR PCP:  0.02;

-EAGLE CREEK   CLOUDY    74  67  78 SW6       29.96F
6HR MIN TEMP:  68; 6HR MAX TEMP:  74; 6HR PCP:  0.03;

KOKOMO +       CLOUDY    75  68  78 W9        29.96F
6HR MIN TEMP:  68; 6HR MAX TEMP:  76; 6HR PCP: TRACE;

MT COMFORT *+    N/A    N/A N/A N/A MISG        N/A
SHELBYVILLE    PTSUNNY   77  66  68 S5        29.96F
6HR MIN TEMP:  68; 6HR MAX TEMP:  77; 6HR PCP:  0.39;


$$

INZ033-034-041-042-049-050-058-059-191900-
EAST CENTRAL INDIANA

CITY           SKY/WX    TMP DP  RH WIND       PRES   REMARKS
MUNCIE         CLOUDY    73  67  81 SW9       29.97F
6HR MIN TEMP:  71; 6HR MAX TEMP:  74; 6HR PCP:  0.02;

RICHMOND +     CLOUDY    70  66  88 SW8       29.99F

$$

INZ060-061-067>069-081>083-085>088-191900-
SOUTHWEST INDIANA

CITY           SKY/WX    TMP DP  RH WIND       PRES   REMARKS
EVANSVILLE     CLOUDY    78  69  73 S7        29.96F
6HR MIN TEMP:  68; 6HR MAX TEMP:  78; 6HR PCP:  0.03;

HUNTINGBURG +    N/A    N/A N/A N/A MISG        N/A

$$

INZ062-063-066-070>080-084-089>092-191900-
SOUTH CENTRAL AND SOUTHEAST INDIANA

CITY           SKY/WX    TMP DP  RH WIND       PRES   REMARKS
BLOOMINGTON    MOSUNNY   79  66  64 SW6       29.97F
6HR MIN TEMP:  67; 6HR MAX TEMP:  79; 6HR PCP:  0.09;

MADISON *+     PTSUNNY   73  66  78 S7        30.00F
SEYMOUR +      CLOUDY    77  66  69 SW7       29.97F

$$





USA.gov is the U.S. government's official web portal to all federal, state and local government web resources and services.